Time,TemperatureF,DewpointF,PressureIn,WindDirection,WindDirectionDegrees,WindSpeedMPH,WindSpeedGustMPH,Humidity,HourlyPrecipIn,Conditions,Clouds,dailyrainin,SoftwareType,DateUTC
2013-05-26 00:01:00,68.8,62.0,30.11,SE,135,4.5,6.5,79,0.00,,,0.00,WUHU216HW,2013-05-26 05:01:00,
2013-05-26 00:06:00,68.8,62.0,30.10,SE,135,8.7,8.7,79,0.00,,,0.00,WUHU216HW,2013-05-26 05:06:00,
2013-05-26 00:11:00,68.8,62.0,30.10,ESE,113,3.4,8.7,79,0.00,,,0.00,WUHU216HW,2013-05-26 05:11:00,
2013-05-26 00:16:00,68.9,62.2,30.10,SSE,158,6.5,6.5,79,0.00,,,0.00,WUHU216HW,2013-05-26 05:16:00,
2013-05-26 00:21:00,68.9,62.2,30.10,ESE,113,3.6,9.8,79,0.00,,,0.00,WUHU216HW,2013-05-26 05:21:00,
2013-05-26 00:26:00,68.9,62.2,30.10,ESE,113,6.3,9.8,79,0.00,,,0.00,WUHU216HW,2013-05-26 05:26:00,
2013-05-26 00:31:00,68.9,62.2,30.10,SE,135,7.2,8.7,79,0.00,,,0.00,WUHU216HW,2013-05-26 05:31:00,
2013-05-26 00:36:00,68.9,62.2,30.11,SE,135,3.8,8.7,79,0.00,,,0.00,WUHU216HW,2013-05-26 05:36:00,
2013-05-26 00:41:00,68.9,62.2,30.10,SE,135,5.1,6.5,79,0.00,,,0.00,WUHU216HW,2013-05-26 05:41:00,
2013-05-26 00:46:00,68.8,62.0,30.10,SE,135,5.4,6.5,79,0.00,,,0.00,WUHU216HW,2013-05-26 05:46:00,
2013-05-26 00:51:00,68.8,62.4,30.10,SSE,158,6.9,6.9,80,0.00,,,0.00,WUHU216HW,2013-05-26 05:51:00,
2013-05-26 00:56:00,68.6,62.2,30.10,South,180,3.8,6.9,80,0.00,,,0.00,WUHU216HW,2013-05-26 05:56:00,
2013-05-26 01:01:00,68.4,62.1,30.10,SE,135,5.6,6.9,80,0.00,,,0.00,WUHU216HW,2013-05-26 06:01:00,
2013-05-26 01:06:00,68.4,62.1,30.10,SE,135,5.4,7.2,80,0.00,,,0.00,WUHU216HW,2013-05-26 06:06:00,
2013-05-26 01:11:00,68.2,61.9,30.10,SE,135,7.6,7.6,80,0.00,,,0.00,WUHU216HW,2013-05-26 06:11:00,
2013-05-26 01:16:00,68.0,62.1,30.10,SE,135,6.9,7.6,81,0.00,,,0.00,WUHU216HW,2013-05-26 06:16:00,
2013-05-26 01:21:00,68.0,62.1,30.10,SSE,158,6.7,8.7,81,0.00,,,0.00,WUHU216HW,2013-05-26 06:21:00,
2013-05-26 01:26:00,68.0,62.1,30.10,South,180,7.6,8.7,81,0.00,,,0.00,WUHU216HW,2013-05-26 06:26:00,
2013-05-26 01:31:00,68.0,62.1,30.10,SE,135,6.3,7.6,81,0.00,,,0.00,WUHU216HW,2013-05-26 06:31:00,
2013-05-26 01:36:00,67.9,61.9,30.10,SE,135,6.5,7.8,81,0.00,,,0.00,WUHU216HW,2013-05-26 06:36:00,
2013-05-26 01:41:00,67.9,61.9,30.09,SE,135,9.8,9.8,81,0.00,,,0.00,WUHU216HW,2013-05-26 06:41:00,
2013-05-26 01:46:00,67.7,62.0,30.09,SSE,158,10.3,10.3,82,0.00,,,0.00,WUHU216HW,2013-05-26 06:46:00,
2013-05-26 01:51:00,67.7,62.0,30.09,SE,135,6.9,10.3,82,0.00,,,0.00,WUHU216HW,2013-05-26 06:51:00,
2013-05-26 01:56:00,67.5,61.8,30.09,SE,135,6.0,8.7,82,0.00,,,0.00,WUHU216HW,2013-05-26 06:56:00,
2013-05-26 02:01:00,67.3,61.7,30.09,SE,135,7.6,9.2,82,0.00,,,0.00,WUHU216HW,2013-05-26 07:01:00,
2013-05-26 02:06:00,67.3,62.0,30.09,SE,135,6.9,9.2,83,0.00,,,0.00,WUHU216HW,2013-05-26 07:06:00,
2013-05-26 02:11:00,67.1,61.8,30.09,ESE,113,5.6,8.1,83,0.00,,,0.00,WUHU216HW,2013-05-26 07:11:00,
2013-05-26 02:16:00,67.1,61.8,30.09,SE,135,7.6,8.1,83,0.00,,,0.00,WUHU216HW,2013-05-26 07:16:00,
2013-05-26 02:21:00,67.0,61.7,30.09,ESE,113,5.4,7.6,83,0.00,,,0.00,WUHU216HW,2013-05-26 07:21:00,
2013-05-26 02:26:00,67.0,61.7,30.09,SE,135,4.0,8.5,83,0.00,,,0.00,WUHU216HW,2013-05-26 07:26:00,
2013-05-26 02:31:00,67.0,61.9,30.09,SE,135,4.9,9.8,84,0.00,,,0.00,WUHU216HW,2013-05-26 07:31:00,
2013-05-26 02:36:00,66.8,61.7,30.08,ESE,113,4.7,9.8,84,0.00,,,0.00,WUHU216HW,2013-05-26 07:36:00,
2013-05-26 02:41:00,66.8,61.7,30.09,SSE,158,7.2,8.7,84,0.00,,,0.00,WUHU216HW,2013-05-26 07:41:00,
2013-05-26 02:46:00,66.6,61.6,30.09,SE,135,5.8,8.7,84,0.00,,,0.00,WUHU216HW,2013-05-26 07:46:00,
2013-05-26 02:51:00,66.4,61.7,30.08,ESE,113,6.7,7.6,85,0.00,,,0.00,WUHU216HW,2013-05-26 07:51:00,
2013-05-26 02:56:00,66.4,61.7,30.08,SE,135,5.8,7.6,85,0.00,,,0.00,WUHU216HW,2013-05-26 07:56:00,
2013-05-26 03:01:00,66.4,61.7,30.08,SE,135,4.5,7.4,85,0.00,,,0.00,WUHU216HW,2013-05-26 08:01:00,
2013-05-26 03:06:00,66.2,61.6,30.08,SE,135,6.0,6.0,85,0.00,,,0.00,WUHU216HW,2013-05-26 08:06:00,
2013-05-26 03:11:00,66.2,61.9,30.08,SE,135,4.7,8.3,86,0.00,,,0.00,WUHU216HW,2013-05-26 08:11:00,
2013-05-26 03:16:00,66.2,61.9,30.08,SSE,158,3.4,8.3,86,0.00,,,0.00,WUHU216HW,2013-05-26 08:16:00,
2013-05-26 03:21:00,66.2,61.9,30.08,SE,135,4.7,7.6,86,0.00,,,0.00,WUHU216HW,2013-05-26 08:21:00,
2013-05-26 03:26:00,66.2,61.9,30.08,SE,135,4.3,6.5,86,0.00,,,0.00,WUHU216HW,2013-05-26 08:26:00,
2013-05-26 03:31:00,66.2,61.9,30.08,SE,135,6.5,6.5,86,0.00,,,0.00,WUHU216HW,2013-05-26 08:31:00,
2013-05-26 03:36:00,66.2,61.9,30.09,SSE,158,4.0,6.5,86,0.00,,,0.00,WUHU216HW,2013-05-26 08:36:00,
2013-05-26 03:41:00,66.2,62.2,30.09,SSE,158,5.1,6.5,87,0.00,,,0.00,WUHU216HW,2013-05-26 08:41:00,
2013-05-26 03:46:00,66.4,62.4,30.08,SE,135,6.7,6.7,87,0.00,,,0.00,WUHU216HW,2013-05-26 08:46:00,
2013-05-26 03:51:00,66.6,62.6,30.08,SE,135,7.6,7.6,87,0.00,,,0.00,WUHU216HW,2013-05-26 08:51:00,
2013-05-26 03:56:00,66.6,62.6,30.08,ESE,113,4.5,7.6,87,0.00,,,0.00,WUHU216HW,2013-05-26 08:56:00,
2013-05-26 04:01:00,66.6,62.6,30.08,SE,135,5.1,6.3,87,0.00,,,0.00,WUHU216HW,2013-05-26 09:01:00,
2013-05-26 04:06:00,66.6,62.6,30.07,SE,135,4.7,5.8,87,0.00,,,0.00,WUHU216HW,2013-05-26 09:06:00,
2013-05-26 04:11:00,66.8,62.7,30.07,SE,135,5.1,5.8,87,0.00,,,0.00,WUHU216HW,2013-05-26 09:11:00,
2013-05-26 04:16:00,66.8,62.7,30.07,SE,135,4.9,6.0,87,0.00,,,0.00,WUHU216HW,2013-05-26 09:16:00,
2013-05-26 04:21:00,66.8,62.7,30.06,SE,135,4.5,6.0,87,0.00,,,0.00,WUHU216HW,2013-05-26 09:21:00,
2013-05-26 04:26:00,66.8,62.7,30.06,South,180,4.5,6.0,87,0.00,,,0.00,WUHU216HW,2013-05-26 09:26:00,
2013-05-26 04:31:00,66.8,62.7,30.07,ESE,113,4.5,5.6,87,0.00,,,0.00,WUHU216HW,2013-05-26 09:31:00,
2013-05-26 04:36:00,66.8,62.7,30.07,SE,135,4.7,5.6,87,0.00,,,0.00,WUHU216HW,2013-05-26 09:36:00,
2013-05-26 04:41:00,66.8,62.7,30.06,SSE,158,5.4,5.4,87,0.00,,,0.00,WUHU216HW,2013-05-26 09:41:00,
2013-05-26 04:46:00,66.8,62.7,30.06,SE,135,4.0,8.9,87,0.00,,,0.00,WUHU216HW,2013-05-26 09:46:00,
2013-05-26 04:51:00,66.8,62.7,30.06,East,90,4.7,8.9,87,0.00,,,0.00,WUHU216HW,2013-05-26 09:51:00,
2013-05-26 04:56:00,66.8,62.7,30.06,ESE,113,4.3,6.3,87,0.00,,,0.00,WUHU216HW,2013-05-26 09:56:00,
2013-05-26 05:01:00,66.8,62.7,30.06,ESE,113,3.4,5.4,87,0.00,,,0.00,WUHU216HW,2013-05-26 10:01:00,
2013-05-26 05:06:00,66.8,62.7,30.06,SSE,158,4.5,4.9,87,0.00,,,0.00,WUHU216HW,2013-05-26 10:06:00,
2013-05-26 05:11:00,66.6,62.6,30.06,SE,135,4.5,4.5,87,0.00,,,0.00,WUHU216HW,2013-05-26 10:11:00,
2013-05-26 05:16:00,66.6,62.6,30.06,SE,135,4.5,4.5,87,0.00,,,0.00,WUHU216HW,2013-05-26 10:16:00,
2013-05-26 05:21:00,66.6,62.6,30.06,ESE,113,2.7,6.3,87,0.00,,,0.00,WUHU216HW,2013-05-26 10:21:00,
2013-05-26 05:26:00,66.4,62.4,30.06,SSE,158,3.8,6.3,87,0.00,,,0.00,WUHU216HW,2013-05-26 10:26:00,
2013-05-26 05:31:00,66.4,62.4,30.06,SE,135,4.7,4.9,87,0.00,,,0.00,WUHU216HW,2013-05-26 10:31:00,
2013-05-26 05:36:00,66.4,62.7,30.06,SE,135,4.7,5.6,88,0.00,,,0.00,WUHU216HW,2013-05-26 10:36:00,
2013-05-26 05:41:00,66.2,62.6,30.06,ESE,113,4.9,5.6,88,0.00,,,0.00,WUHU216HW,2013-05-26 10:41:00,
2013-05-26 05:46:00,66.2,62.6,30.06,SE,135,4.3,5.6,88,0.00,,,0.00,WUHU216HW,2013-05-26 10:46:00,
2013-05-26 05:51:00,66.2,62.6,30.06,SSE,158,4.9,6.7,88,0.00,,,0.00,WUHU216HW,2013-05-26 10:51:00,
2013-05-26 05:56:00,66.2,62.6,30.06,SSE,158,3.4,6.7,88,0.00,,,0.00,WUHU216HW,2013-05-26 10:56:00,
2013-05-26 06:01:00,66.2,62.6,30.06,ESE,113,4.7,7.8,88,0.00,,,0.00,WUHU216HW,2013-05-26 11:01:00,
2013-05-26 06:06:00,66.2,62.6,30.06,SE,135,3.4,7.8,88,0.00,,,0.00,WUHU216HW,2013-05-26 11:06:00,
2013-05-26 06:11:00,66.4,63.0,30.07,South,180,4.9,6.3,89,0.00,,,0.00,WUHU216HW,2013-05-26 11:11:00,
2013-05-26 06:16:00,66.4,62.7,30.07,SSE,158,4.5,7.6,88,0.00,,,0.00,WUHU216HW,2013-05-26 11:16:00,
2013-05-26 06:21:00,66.4,63.0,30.07,SE,135,4.0,7.6,89,0.00,,,0.00,WUHU216HW,2013-05-26 11:21:00,
2013-05-26 06:26:00,66.4,63.0,30.07,SSE,158,5.4,6.3,89,0.00,,,0.00,WUHU216HW,2013-05-26 11:26:00,
2013-05-26 06:31:00,66.4,63.0,30.07,ESE,113,5.8,6.3,89,0.00,,,0.00,WUHU216HW,2013-05-26 11:31:00,
2013-05-26 06:36:00,66.6,63.2,30.07,SE,135,5.1,6.3,89,0.00,,,0.00,WUHU216HW,2013-05-26 11:36:00,
2013-05-26 06:41:00,66.6,63.2,30.06,SE,135,6.5,6.7,89,0.00,,,0.00,WUHU216HW,2013-05-26 11:41:00,
2013-05-26 06:46:00,66.6,63.2,30.06,SSE,158,4.5,6.7,89,0.00,,,0.00,WUHU216HW,2013-05-26 11:46:00,
2013-05-26 06:51:00,66.6,63.2,30.06,SSE,158,4.0,5.6,89,0.00,,,0.00,WUHU216HW,2013-05-26 11:51:00,
2013-05-26 06:56:00,66.8,63.4,30.06,SE,135,3.6,5.6,89,0.00,,,0.00,WUHU216HW,2013-05-26 11:56:00,
2013-05-26 07:01:00,67.0,63.5,30.06,SE,135,4.5,8.1,89,0.00,,,0.00,WUHU216HW,2013-05-26 12:01:00,
2013-05-26 07:06:00,67.0,63.5,30.06,ESE,113,4.5,8.5,89,0.00,,,0.00,WUHU216HW,2013-05-26 12:06:00,
2013-05-26 07:11:00,67.0,63.5,30.06,SE,135,3.6,8.5,89,0.00,,,0.00,WUHU216HW,2013-05-26 12:11:00,
2013-05-26 07:16:00,67.1,63.7,30.06,SE,135,4.7,6.3,89,0.00,,,0.00,WUHU216HW,2013-05-26 12:16:00,
2013-05-26 07:21:00,67.3,63.9,30.06,South,180,7.6,8.1,89,0.00,,,0.00,WUHU216HW,2013-05-26 12:21:00,
2013-05-26 07:26:00,67.5,64.1,30.06,SSE,158,8.5,8.5,89,0.00,,,0.00,WUHU216HW,2013-05-26 12:26:00,
2013-05-26 07:31:00,67.7,64.0,30.06,South,180,4.5,8.5,88,0.00,,,0.00,WUHU216HW,2013-05-26 12:31:00,
2013-05-26 07:36:00,68.0,64.4,30.06,SE,135,3.1,6.7,88,0.00,,,0.00,WUHU216HW,2013-05-26 12:36:00,
2013-05-26 07:41:00,68.4,64.7,30.06,ESE,113,4.9,6.5,88,0.00,,,0.00,WUHU216HW,2013-05-26 12:41:00,
2013-05-26 07:46:00,68.8,64.7,30.06,ESE,113,9.2,9.2,87,0.00,,,0.00,WUHU216HW,2013-05-26 12:46:00,
2013-05-26 07:51:00,69.1,65.1,30.06,South,180,4.7,9.2,87,0.00,,,0.00,WUHU216HW,2013-05-26 12:51:00,
2013-05-26 07:56:00,69.7,65.3,30.05,SSE,158,5.1,10.1,86,0.00,,,0.00,WUHU216HW,2013-05-26 12:56:00,
2013-05-26 08:01:00,70.0,65.6,30.06,West,270,3.4,10.1,86,0.00,,,0.00,WUHU216HW,2013-05-26 13:01:00,
2013-05-26 08:06:00,70.2,65.4,30.07,ESE,113,5.4,6.9,85,0.00,,,0.00,WUHU216HW,2013-05-26 13:06:00,
2013-05-26 08:11:00,70.6,65.8,30.06,SSW,203,2.7,7.2,85,0.00,,,0.00,WUHU216HW,2013-05-26 13:11:00,
2013-05-26 08:16:00,70.9,65.8,30.07,South,180,3.1,7.2,84,0.00,,,0.00,WUHU216HW,2013-05-26 13:16:00,
2013-05-26 08:21:00,71.3,66.2,30.06,ESE,113,3.6,5.8,84,0.00,,,0.00,WUHU216HW,2013-05-26 13:21:00,
2013-05-26 08:26:00,71.6,66.2,30.07,South,180,3.4,5.8,83,0.00,,,0.00,WUHU216HW,2013-05-26 13:26:00,
2013-05-26 08:31:00,71.6,66.2,30.07,SW,225,2.0,5.8,83,0.00,,,0.00,WUHU216HW,2013-05-26 13:31:00,
2013-05-26 08:36:00,72.0,66.3,30.07,WSW,248,4.3,8.5,82,0.00,,,0.00,WUHU216HW,2013-05-26 13:36:00,
2013-05-26 08:41:00,72.2,66.4,30.07,South,180,3.1,8.5,82,0.00,,,0.00,WUHU216HW,2013-05-26 13:41:00,
2013-05-26 08:46:00,72.4,66.6,30.06,SW,225,5.6,5.6,82,0.00,,,0.00,WUHU216HW,2013-05-26 13:46:00,
2013-05-26 08:51:00,72.4,66.6,30.07,NNE,23,6.5,6.5,82,0.00,,,0.00,WUHU216HW,2013-05-26 13:51:00,
2013-05-26 08:56:00,72.4,66.6,30.07,SSE,158,2.5,6.5,82,0.00,,,0.00,WUHU216HW,2013-05-26 13:56:00,
2013-05-26 09:01:00,72.4,66.3,30.07,SE,135,5.4,6.5,81,0.00,,,0.00,WUHU216HW,2013-05-26 14:01:00,
2013-05-26 09:06:00,72.4,66.3,30.06,South,180,5.4,6.0,81,0.00,,,0.00,WUHU216HW,2013-05-26 14:06:00,
2013-05-26 09:11:00,72.5,66.4,30.07,SW,225,4.3,6.3,81,0.00,,,0.00,WUHU216HW,2013-05-26 14:11:00,
2013-05-26 09:16:00,73.1,67.3,30.07,West,270,1.8,6.3,82,0.00,,,0.00,WUHU216HW,2013-05-26 14:16:00,
2013-05-26 09:21:00,73.4,67.3,30.07,WSW,248,3.4,4.7,81,0.00,,,0.00,WUHU216HW,2013-05-26 14:21:00,
2013-05-26 09:26:00,73.4,67.3,30.07,SSE,158,4.3,7.6,81,0.00,,,0.00,WUHU216HW,2013-05-26 14:26:00,
2013-05-26 09:31:00,73.4,67.3,30.07,WSW,248,6.0,7.6,81,0.00,,,0.00,WUHU216HW,2013-05-26 14:31:00,
2013-05-26 09:36:00,73.8,67.3,30.06,South,180,4.0,6.3,80,0.00,,,0.00,WUHU216HW,2013-05-26 14:36:00,
2013-05-26 09:41:00,74.2,67.3,30.06,SSW,203,5.4,6.3,79,0.00,,,0.00,WUHU216HW,2013-05-26 14:41:00,
2013-05-26 09:46:00,74.5,67.7,30.06,SSW,203,7.6,7.6,79,0.00,,,0.00,WUHU216HW,2013-05-26 14:46:00,
2013-05-26 09:51:00,74.5,67.7,30.07,SSW,203,2.9,7.6,79,0.00,,,0.00,WUHU216HW,2013-05-26 14:51:00,
2013-05-26 09:56:00,74.5,67.2,30.06,SW,225,8.5,8.5,78,0.00,,,0.00,WUHU216HW,2013-05-26 14:56:00,
2013-05-26 10:01:00,74.9,67.6,30.06,SW,225,4.0,8.5,78,0.00,,,0.00,WUHU216HW,2013-05-26 15:01:00,
2013-05-26 10:06:00,75.2,67.1,30.06,SSW,203,6.5,10.1,76,0.00,,,0.00,WUHU216HW,2013-05-26 15:06:00,
2013-05-26 10:11:00,76.0,67.5,30.06,SSW,203,8.9,10.1,75,0.00,,,0.00,WUHU216HW,2013-05-26 15:11:00,
2013-05-26 10:16:00,76.3,67.8,30.06,SW,225,6.9,9.6,75,0.00,,,0.00,WUHU216HW,2013-05-26 15:16:00,
2013-05-26 10:21:00,76.3,67.8,30.05,SSW,203,5.4,8.7,75,0.00,,,0.00,WUHU216HW,2013-05-26 15:21:00,
2013-05-26 10:26:00,76.5,68.0,30.05,SSE,158,3.6,6.9,75,0.00,,,0.00,WUHU216HW,2013-05-26 15:26:00,
2013-05-26 10:31:00,76.5,67.6,30.05,SW,225,5.1,6.0,74,0.00,,,0.00,WUHU216HW,2013-05-26 15:31:00,
2013-05-26 10:36:00,76.3,66.7,30.05,SW,225,12.3,12.3,72,0.00,,,0.00,WUHU216HW,2013-05-26 15:36:00,
2013-05-26 10:41:00,77.0,67.8,30.04,West,270,3.6,12.3,73,0.00,,,0.00,WUHU216HW,2013-05-26 15:41:00,
2013-05-26 10:46:00,77.4,67.3,30.04,SSW,203,4.5,12.3,71,0.00,,,0.00,WUHU216HW,2013-05-26 15:46:00,
2013-05-26 10:51:00,77.6,67.5,30.04,SSW,203,6.3,12.1,71,0.00,,,0.00,WUHU216HW,2013-05-26 15:51:00,
2013-05-26 10:56:00,77.4,67.3,30.04,WSW,248,6.9,12.1,71,0.00,,,0.00,WUHU216HW,2013-05-26 15:56:00,
2013-05-26 11:01:00,77.6,67.5,30.05,ESE,113,4.3,10.1,71,0.00,,,0.00,WUHU216HW,2013-05-26 16:01:00,
2013-05-26 11:06:00,77.6,67.9,30.04,SW,225,4.9,6.9,72,0.00,,,0.00,WUHU216HW,2013-05-26 16:06:00,
2013-05-26 11:11:00,78.3,67.8,30.05,South,180,5.4,5.4,70,0.00,,,0.00,WUHU216HW,2013-05-26 16:11:00,
2013-05-26 11:16:00,77.9,67.4,30.05,SSW,203,8.7,10.7,70,0.00,,,0.00,WUHU216HW,2013-05-26 16:16:00,
2013-05-26 11:21:00,78.1,68.0,30.05,WSW,248,4.7,10.7,71,0.00,,,0.00,WUHU216HW,2013-05-26 16:21:00,
2013-05-26 11:26:00,77.9,67.8,30.05,South,180,3.6,9.8,71,0.00,,,0.00,WUHU216HW,2013-05-26 16:26:00,
2013-05-26 11:31:00,77.8,67.2,30.05,SSW,203,5.1,8.5,70,0.00,,,0.00,WUHU216HW,2013-05-26 16:31:00,
2013-05-26 11:36:00,77.9,67.4,30.05,SSW,203,4.5,8.5,70,0.00,,,0.00,WUHU216HW,2013-05-26 16:36:00,
2013-05-26 11:41:00,78.1,68.0,30.05,NW,315,3.4,7.6,71,0.00,,,0.00,WUHU216HW,2013-05-26 16:41:00,
2013-05-26 11:46:00,78.1,67.6,30.05,South,180,4.0,7.6,70,0.00,,,0.00,WUHU216HW,2013-05-26 16:46:00,
2013-05-26 11:51:00,78.5,67.5,30.05,SSW,203,5.6,8.5,69,0.00,,,0.00,WUHU216HW,2013-05-26 16:51:00,
2013-05-26 11:56:00,78.3,67.8,30.05,SSE,158,5.4,8.5,70,0.00,,,0.00,WUHU216HW,2013-05-26 16:56:00,
2013-05-26 12:01:00,78.5,67.9,30.05,WSW,248,6.9,6.9,70,0.00,,,0.00,WUHU216HW,2013-05-26 17:01:00,
2013-05-26 12:06:00,78.7,67.6,30.05,SE,135,5.4,7.6,69,0.00,,,0.00,WUHU216HW,2013-05-26 17:06:00,
2013-05-26 12:11:00,78.8,68.2,30.05,SSE,158,3.6,7.6,70,0.00,,,0.00,WUHU216HW,2013-05-26 17:11:00,
2013-05-26 12:16:00,79.7,68.2,30.05,SE,135,5.8,8.9,68,0.00,,,0.00,WUHU216HW,2013-05-26 17:16:00,
2013-05-26 12:21:00,79.6,68.0,30.05,SSW,203,3.4,8.9,68,0.00,,,0.00,WUHU216HW,2013-05-26 17:21:00,
2013-05-26 12:26:00,79.2,67.2,30.05,WNW,293,2.0,6.3,67,0.00,,,0.00,WUHU216HW,2013-05-26 17:26:00,
2013-05-26 12:31:00,78.5,67.5,30.05,South,180,3.6,6.3,69,0.00,,,0.00,WUHU216HW,2013-05-26 17:31:00,
2013-05-26 12:36:00,78.7,67.2,30.05,SW,225,8.1,8.1,68,0.00,,,0.00,WUHU216HW,2013-05-26 17:36:00,
2013-05-26 12:41:00,78.5,67.1,30.05,SW,225,6.0,8.1,68,0.00,,,0.00,WUHU216HW,2013-05-26 17:41:00,
2013-05-26 12:46:00,78.5,67.5,30.05,WSW,248,2.7,9.6,69,0.00,,,0.00,WUHU216HW,2013-05-26 17:46:00,
2013-05-26 12:51:00,78.5,67.1,30.05,SSW,203,5.4,9.6,68,0.00,,,0.00,WUHU216HW,2013-05-26 17:51:00,
2013-05-26 12:56:00,78.7,68.5,30.05,SE,135,4.0,6.0,71,0.00,,,0.00,WUHU216HW,2013-05-26 17:56:00,
2013-05-26 13:01:00,79.2,68.1,30.05,SSE,158,4.7,5.4,69,0.00,,,0.00,WUHU216HW,2013-05-26 18:01:00,
2013-05-26 13:06:00,79.2,68.1,30.05,ESE,113,4.7,8.9,69,0.00,,,0.00,WUHU216HW,2013-05-26 18:06:00,
2013-05-26 13:11:00,79.4,67.9,30.04,SE,135,8.5,8.9,68,0.00,,,0.00,WUHU216HW,2013-05-26 18:11:00,
2013-05-26 13:16:00,79.4,67.4,30.04,SE,135,4.0,8.5,67,0.00,,,0.00,WUHU216HW,2013-05-26 18:16:00,
2013-05-26 13:21:00,79.7,67.8,30.04,SE,135,8.9,8.9,67,0.00,,,0.00,WUHU216HW,2013-05-26 18:21:00,
2013-05-26 13:26:00,80.6,68.2,30.03,SSE,158,4.7,9.2,66,0.00,,,0.00,WUHU216HW,2013-05-26 18:26:00,
2013-05-26 13:31:00,80.8,68.4,30.04,SE,135,7.2,13.2,66,0.00,,,0.00,WUHU216HW,2013-05-26 18:31:00,
2013-05-26 13:36:00,81.5,68.6,30.03,SSW,203,7.2,13.2,65,0.00,,,0.00,WUHU216HW,2013-05-26 18:36:00,
2013-05-26 13:41:00,82.4,68.5,30.03,SSE,158,6.3,9.2,63,0.00,,,0.00,WUHU216HW,2013-05-26 18:41:00,
2013-05-26 13:46:00,82.4,68.5,30.03,SSE,158,5.1,7.6,63,0.00,,,0.00,WUHU216HW,2013-05-26 18:46:00,
2013-05-26 13:51:00,82.1,68.6,30.03,ESE,113,8.1,8.1,64,0.00,,,0.00,WUHU216HW,2013-05-26 18:51:00,
2013-05-26 13:56:00,82.4,68.9,30.03,WSW,248,6.0,8.1,64,0.00,,,0.00,WUHU216HW,2013-05-26 18:56:00,
2013-05-26 14:01:00,83.5,69.6,30.02,West,270,5.6,9.2,63,0.00,,,0.00,WUHU216HW,2013-05-26 19:01:00,
2013-05-26 14:06:00,83.5,69.1,30.02,SSW,203,5.8,9.8,62,0.00,,,0.00,WUHU216HW,2013-05-26 19:06:00,
2013-05-26 14:11:00,83.3,68.9,30.02,SE,135,4.5,9.8,62,0.00,,,0.00,WUHU216HW,2013-05-26 19:11:00,
2013-05-26 14:16:00,83.2,68.8,30.02,SSE,158,2.5,9.4,62,0.00,,,0.00,WUHU216HW,2013-05-26 19:16:00,
2013-05-26 14:21:00,82.8,68.0,30.02,SW,225,10.5,10.5,61,0.00,,,0.00,WUHU216HW,2013-05-26 19:21:00,
2013-05-26 14:26:00,82.6,68.7,30.01,South,180,8.3,10.5,63,0.00,,,0.00,WUHU216HW,2013-05-26 19:26:00,
2013-05-26 14:31:00,81.9,67.6,30.01,ESE,113,5.4,8.3,62,0.00,,,0.00,WUHU216HW,2013-05-26 19:31:00,
2013-05-26 14:36:00,81.7,68.3,30.01,SSW,203,2.5,7.6,64,0.00,,,0.00,WUHU216HW,2013-05-26 19:36:00,
2013-05-26 14:41:00,81.7,67.9,30.01,SW,225,8.5,8.5,63,0.00,,,0.00,WUHU216HW,2013-05-26 19:41:00,
2013-05-26 14:46:00,81.9,68.5,30.01,SSE,158,5.6,8.5,64,0.00,,,0.00,WUHU216HW,2013-05-26 19:46:00,
2013-05-26 14:51:00,81.9,68.5,30.00,SW,225,6.3,10.1,64,0.00,,,0.00,WUHU216HW,2013-05-26 19:51:00,
2013-05-26 14:56:00,81.5,68.1,30.00,NNE,23,4.7,10.1,64,0.00,,,0.00,WUHU216HW,2013-05-26 19:56:00,
2013-05-26 15:01:00,81.7,68.3,30.00,SSW,203,5.6,6.7,64,0.00,,,0.00,WUHU216HW,2013-05-26 20:01:00,
2013-05-26 15:06:00,81.9,68.5,30.00,South,180,9.2,9.2,64,0.00,,,0.00,WUHU216HW,2013-05-26 20:06:00,
2013-05-26 15:11:00,81.9,68.1,30.00,South,180,3.4,9.2,63,0.00,,,0.00,WUHU216HW,2013-05-26 20:11:00,
2013-05-26 15:16:00,82.3,68.3,30.00,WSW,248,7.4,7.4,63,0.00,,,0.00,WUHU216HW,2013-05-26 20:16:00,
2013-05-26 15:21:00,82.4,67.6,30.00,SSW,203,8.5,8.5,61,0.00,,,0.00,WUHU216HW,2013-05-26 20:21:00,
2013-05-26 15:26:00,82.4,68.0,30.00,SSW,203,5.1,8.5,62,0.00,,,0.00,WUHU216HW,2013-05-26 20:26:00,
2013-05-26 15:31:00,82.4,67.6,29.99,West,270,2.9,6.3,61,0.00,,,0.00,WUHU216HW,2013-05-26 20:31:00,
2013-05-26 15:36:00,83.0,67.7,29.99,SW,225,4.9,9.2,60,0.00,,,0.00,WUHU216HW,2013-05-26 20:36:00,
2013-05-26 15:41:00,83.5,68.7,29.99,SW,225,5.1,9.2,61,0.00,,,0.00,WUHU216HW,2013-05-26 20:41:00,
2013-05-26 15:46:00,84.2,69.4,29.99,SW,225,6.7,7.6,61,0.00,,,0.00,WUHU216HW,2013-05-26 20:46:00,
2013-05-26 15:51:00,85.0,68.1,29.99,SW,225,8.3,9.2,57,0.00,,,0.00,WUHU216HW,2013-05-26 20:51:00,
2013-05-26 15:56:00,85.0,68.6,29.99,SW,225,4.9,9.2,58,0.00,,,0.00,WUHU216HW,2013-05-26 20:56:00,
2013-05-26 16:01:00,85.0,68.6,29.99,SW,225,3.4,8.3,58,0.00,,,0.00,WUHU216HW,2013-05-26 21:01:00,
2013-05-26 16:06:00,83.7,68.4,29.99,East,90,3.6,4.7,60,0.00,,,0.00,WUHU216HW,2013-05-26 21:06:00,
2013-05-26 16:11:00,83.3,67.5,29.99,SSE,158,2.0,4.9,59,0.00,,,0.00,WUHU216HW,2013-05-26 21:11:00,
2013-05-26 16:16:00,83.3,68.5,29.99,SW,225,3.4,4.9,61,0.00,,,0.00,WUHU216HW,2013-05-26 21:16:00,
2013-05-26 16:21:00,83.3,68.5,29.99,SW,225,5.4,5.4,61,0.00,,,0.00,WUHU216HW,2013-05-26 21:21:00,
2013-05-26 16:26:00,83.2,68.3,29.98,SW,225,4.0,6.3,61,0.00,,,0.00,WUHU216HW,2013-05-26 21:26:00,
2013-05-26 16:31:00,83.2,67.3,29.98,South,180,2.5,9.8,59,0.00,,,0.00,WUHU216HW,2013-05-26 21:31:00,
2013-05-26 16:36:00,83.0,66.6,29.98,SW,225,8.5,9.8,58,0.00,,,0.00,WUHU216HW,2013-05-26 21:36:00,
2013-05-26 16:41:00,82.8,67.0,29.98,East,90,4.7,8.5,59,0.00,,,0.00,WUHU216HW,2013-05-26 21:41:00,
2013-05-26 16:46:00,82.6,66.8,29.98,SSW,203,5.4,5.4,59,0.00,,,0.00,WUHU216HW,2013-05-26 21:46:00,
2013-05-26 16:51:00,83.9,68.6,29.98,SW,225,5.4,10.5,60,0.00,,,0.00,WUHU216HW,2013-05-26 21:51:00,
2013-05-26 16:56:00,83.9,68.0,29.97,SW,225,4.5,10.5,59,0.00,,,0.00,WUHU216HW,2013-05-26 21:56:00,
2013-05-26 17:01:00,83.9,68.0,29.97,SW,225,7.4,9.8,59,0.00,,,0.00,WUHU216HW,2013-05-26 22:01:00,
2013-05-26 17:06:00,84.2,68.9,29.97,SSW,203,2.5,9.2,60,0.00,,,0.00,WUHU216HW,2013-05-26 22:06:00,
2013-05-26 17:11:00,84.1,68.2,29.97,ESE,113,6.0,7.4,59,0.00,,,0.00,WUHU216HW,2013-05-26 22:11:00,
2013-05-26 17:16:00,83.5,67.7,29.97,South,180,6.9,7.4,59,0.00,,,0.00,WUHU216HW,2013-05-26 22:16:00,
2013-05-26 17:21:00,83.3,68.5,29.97,SSW,203,3.4,9.4,61,0.00,,,0.00,WUHU216HW,2013-05-26 22:21:00,
2013-05-26 17:26:00,82.8,67.5,29.97,WSW,248,8.5,9.4,60,0.00,,,0.00,WUHU216HW,2013-05-26 22:26:00,
2013-05-26 17:31:00,82.8,68.0,29.97,SSE,158,6.3,8.5,61,0.00,,,0.00,WUHU216HW,2013-05-26 22:31:00,
2013-05-26 17:36:00,82.8,67.5,29.97,South,180,6.3,8.5,60,0.00,,,0.00,WUHU216HW,2013-05-26 22:36:00,
2013-05-26 17:41:00,83.2,68.3,29.97,South,180,4.5,11.0,61,0.00,,,0.00,WUHU216HW,2013-05-26 22:41:00,
2013-05-26 17:46:00,82.8,67.0,29.97,SW,225,8.3,11.0,59,0.00,,,0.00,WUHU216HW,2013-05-26 22:46:00,
2013-05-26 17:51:00,82.8,67.5,29.96,SW,225,7.2,8.3,60,0.00,,,0.00,WUHU216HW,2013-05-26 22:51:00,
2013-05-26 17:56:00,82.8,67.5,29.96,WSW,248,4.9,8.3,60,0.00,,,0.00,WUHU216HW,2013-05-26 22:56:00,
2013-05-26 18:01:00,82.6,68.2,29.95,South,180,1.8,9.8,62,0.00,,,0.00,WUHU216HW,2013-05-26 23:01:00,
2013-05-26 18:06:00,82.4,68.0,29.95,South,180,2.9,9.8,62,0.00,,,0.00,WUHU216HW,2013-05-26 23:06:00,
2013-05-26 18:11:00,82.1,68.1,29.95,SW,225,5.8,5.8,63,0.00,,,0.00,WUHU216HW,2013-05-26 23:11:00,
2013-05-26 18:16:00,81.7,67.9,29.95,SSE,158,2.9,5.8,63,0.00,,,0.00,WUHU216HW,2013-05-26 23:16:00,
2013-05-26 18:21:00,81.5,68.6,29.95,SSW,203,2.0,5.8,65,0.00,,,0.00,WUHU216HW,2013-05-26 23:21:00,
2013-05-26 18:26:00,81.5,68.1,29.95,East,90,4.5,5.1,64,0.00,,,0.00,WUHU216HW,2013-05-26 23:26:00,
2013-05-26 18:31:00,81.5,68.6,29.95,South,180,2.9,5.4,65,0.00,,,0.00,WUHU216HW,2013-05-26 23:31:00,
2013-05-26 18:36:00,81.5,68.6,29.95,SSW,203,3.6,5.4,65,0.00,,,0.00,WUHU216HW,2013-05-26 23:36:00,
2013-05-26 18:41:00,81.7,68.8,29.95,SW,225,4.0,4.0,65,0.00,,,0.00,WUHU216HW,2013-05-26 23:41:00,
2013-05-26 18:46:00,81.5,67.7,29.95,SW,225,5.4,5.4,63,0.00,,,0.00,WUHU216HW,2013-05-26 23:46:00,
2013-05-26 18:51:00,81.4,67.5,29.95,SW,225,5.4,5.4,63,0.00,,,0.00,WUHU216HW,2013-05-26 23:51:00,
2013-05-26 18:56:00,81.4,67.5,29.95,WSW,248,3.6,5.4,63,0.00,,,0.00,WUHU216HW,2013-05-26 23:56:00,
2013-05-26 19:01:00,81.4,67.5,29.95,SW,225,3.4,5.4,63,0.00,,,0.00,WUHU216HW,2013-05-27 00:01:00,
2013-05-26 19:06:00,81.2,67.8,29.94,SSW,203,2.0,3.6,64,0.00,,,0.00,WUHU216HW,2013-05-27 00:06:00,
2013-05-26 19:11:00,81.0,67.7,29.95,SSE,158,3.6,3.6,64,0.00,,,0.00,WUHU216HW,2013-05-27 00:11:00,
2013-05-26 19:16:00,80.8,68.0,29.94,SSW,203,1.1,3.6,65,0.00,,,0.00,WUHU216HW,2013-05-27 00:16:00,
2013-05-26 19:21:00,80.6,67.8,29.94,SSE,158,1.6,3.6,65,0.00,,,0.00,WUHU216HW,2013-05-27 00:21:00,
2013-05-26 19:26:00,80.5,67.6,29.94,SSE,158,3.1,3.6,65,0.00,,,0.00,WUHU216HW,2013-05-27 00:26:00,
2013-05-26 19:31:00,80.3,67.9,29.94,South,180,3.4,3.6,66,0.00,,,0.00,WUHU216HW,2013-05-27 00:31:00,
2013-05-26 19:36:00,80.1,67.7,29.94,South,180,1.1,3.4,66,0.00,,,0.00,WUHU216HW,2013-05-27 00:36:00,
2013-05-26 19:41:00,79.9,67.5,29.94,SSE,158,3.6,6.9,66,0.00,,,0.00,WUHU216HW,2013-05-27 00:41:00,
2013-05-26 19:46:00,79.9,68.0,29.94,SSW,203,3.4,6.9,67,0.00,,,0.00,WUHU216HW,2013-05-27 00:46:00,
2013-05-26 19:51:00,79.9,68.0,29.93,SSE,158,2.5,5.1,67,0.00,,,0.00,WUHU216HW,2013-05-27 00:51:00,
2013-05-26 19:56:00,79.7,67.8,29.93,ESE,113,3.4,4.9,67,0.00,,,0.00,WUHU216HW,2013-05-27 00:56:00,
2013-05-26 20:01:00,79.6,68.0,29.93,SE,135,4.0,5.4,68,0.00,,,0.00,WUHU216HW,2013-05-27 01:01:00,
2013-05-26 20:06:00,79.6,68.0,29.94,SSE,158,3.4,5.4,68,0.00,,,0.00,WUHU216HW,2013-05-27 01:06:00,
2013-05-26 20:11:00,79.4,67.9,29.95,SE,135,1.6,3.4,68,0.00,,,0.00,WUHU216HW,2013-05-27 01:11:00,
2013-05-26 20:16:00,79.2,68.1,29.95,SSE,158,1.8,2.2,69,0.00,,,0.00,WUHU216HW,2013-05-27 01:16:00,
2013-05-26 20:21:00,78.8,67.8,29.95,SE,135,3.6,3.6,69,0.00,,,0.00,WUHU216HW,2013-05-27 01:21:00,
2013-05-26 20:26:00,78.8,67.8,29.95,SSW,203,2.7,3.8,69,0.00,,,0.00,WUHU216HW,2013-05-27 01:26:00,
2013-05-26 20:31:00,78.5,67.5,29.96,SE,135,1.3,3.8,69,0.00,,,0.00,WUHU216HW,2013-05-27 01:31:00,
2013-05-26 20:36:00,78.5,67.9,29.96,ESE,113,2.2,3.6,70,0.00,,,0.00,WUHU216HW,2013-05-27 01:36:00,
2013-05-26 20:41:00,78.3,67.8,29.97,SSW,203,2.7,3.6,70,0.00,,,0.00,WUHU216HW,2013-05-27 01:41:00,
2013-05-26 20:46:00,78.1,67.6,29.97,ESE,113,1.6,2.9,70,0.00,,,0.00,WUHU216HW,2013-05-27 01:46:00,
2013-05-26 20:51:00,78.1,67.2,29.97,ESE,113,1.1,2.0,69,0.00,,,0.00,WUHU216HW,2013-05-27 01:51:00,
2013-05-26 20:56:00,77.9,67.0,29.98,SE,135,1.6,1.6,69,0.00,,,0.00,WUHU216HW,2013-05-27 01:56:00,
2013-05-26 21:01:00,77.8,67.2,29.98,ESE,113,1.8,1.8,70,0.00,,,0.00,WUHU216HW,2013-05-27 02:01:00,
2013-05-26 21:06:00,77.8,67.2,29.99,SE,135,2.7,4.3,70,0.00,,,0.00,WUHU216HW,2013-05-27 02:06:00,
2013-05-26 21:11:00,77.6,67.5,29.98,SE,135,2.5,4.3,71,0.00,,,0.00,WUHU216HW,2013-05-27 02:11:00,
2013-05-26 21:16:00,77.4,67.3,29.97,South,180,1.8,3.1,71,0.00,,,0.00,WUHU216HW,2013-05-27 02:16:00,
2013-05-26 21:21:00,77.0,67.0,29.98,SE,135,4.0,4.0,71,0.00,,,0.00,WUHU216HW,2013-05-27 02:21:00,
2013-05-26 21:26:00,76.9,66.8,29.98,WSW,248,1.6,4.0,71,0.00,,,0.00,WUHU216HW,2013-05-27 02:26:00,
2013-05-26 21:31:00,76.7,66.6,29.99,SSE,158,4.0,4.0,71,0.00,,,0.00,WUHU216HW,2013-05-27 02:31:00,
2013-05-26 21:36:00,76.7,66.6,30.00,ENE,68,0.7,4.0,71,0.00,,,0.00,WUHU216HW,2013-05-27 02:36:00,
2013-05-26 21:41:00,76.7,66.6,30.00,SE,135,2.9,3.1,71,0.00,,,0.00,WUHU216HW,2013-05-27 02:41:00,
2013-05-26 21:46:00,76.7,66.6,29.99,SSE,158,2.7,3.6,71,0.00,,,0.00,WUHU216HW,2013-05-27 02:46:00,
2013-05-26 21:51:00,76.5,66.9,29.98,SSW,203,2.5,3.6,72,0.00,,,0.00,WUHU216HW,2013-05-27 02:51:00,
2013-05-26 21:56:00,76.5,66.9,29.98,ESE,113,3.4,3.4,72,0.00,,,0.00,WUHU216HW,2013-05-27 02:56:00,
2013-05-26 22:01:00,76.3,66.7,29.98,SSE,158,3.6,3.8,72,0.00,,,0.00,WUHU216HW,2013-05-27 03:01:00,
2013-05-26 22:06:00,76.3,66.7,29.98,SE,135,2.7,3.8,72,0.00,,,0.00,WUHU216HW,2013-05-27 03:06:00,
2013-05-26 22:11:00,76.1,66.9,29.98,ESE,113,3.8,4.5,73,0.00,,,0.00,WUHU216HW,2013-05-27 03:11:00,
2013-05-26 22:16:00,76.1,66.9,29.99,ESE,113,4.0,4.5,73,0.00,,,0.00,WUHU216HW,2013-05-27 03:16:00,
2013-05-26 22:21:00,76.3,67.1,29.99,SE,135,5.4,5.4,73,0.00,,,0.00,WUHU216HW,2013-05-27 03:21:00,
2013-05-26 22:26:00,76.3,67.1,30.00,ESE,113,2.5,5.4,73,0.00,,,0.00,WUHU216HW,2013-05-27 03:26:00,
2013-05-26 22:31:00,76.3,66.7,30.00,SSE,158,4.5,4.5,72,0.00,,,0.00,WUHU216HW,2013-05-27 03:31:00,
2013-05-26 22:36:00,76.3,67.1,29.99,SE,135,2.5,5.4,73,0.00,,,0.00,WUHU216HW,2013-05-27 03:36:00,
2013-05-26 22:41:00,76.1,66.9,29.99,ESE,113,4.0,5.4,73,0.00,,,0.00,WUHU216HW,2013-05-27 03:41:00,
2013-05-26 22:46:00,76.0,67.1,29.99,ESE,113,5.4,5.4,74,0.00,,,0.00,WUHU216HW,2013-05-27 03:46:00,
2013-05-26 22:51:00,75.8,66.9,29.99,SE,135,6.3,6.3,74,0.00,,,0.00,WUHU216HW,2013-05-27 03:51:00,
2013-05-26 22:56:00,75.6,67.2,29.99,SE,135,3.8,6.3,75,0.00,,,0.00,WUHU216HW,2013-05-27 03:56:00,
2013-05-26 23:00:00,75.4,67.0,29.99,SE,135,2.5,4.9,75,0.00,,,0.00,WUHU216HW,2013-05-27 04:00:00,
2013-05-26 23:01:00,75.4,67.0,29.99,SE,135,2.5,4.9,75,0.00,,,0.00,WUHU216HW,2013-05-27 04:01:00,
2013-05-26 23:06:00,75.4,67.0,29.99,SSE,158,1.8,4.7,75,0.00,,,0.00,WUHU216HW,2013-05-27 04:06:00,
2013-05-26 23:11:00,75.2,66.8,29.99,SE,135,2.5,4.3,75,0.00,,,0.00,WUHU216HW,2013-05-27 04:11:00,
2013-05-26 23:16:00,75.2,66.8,30.00,SE,135,2.7,4.7,75,0.00,,,0.00,WUHU216HW,2013-05-27 04:16:00,
2013-05-26 23:21:00,75.2,66.8,30.00,SE,135,5.1,5.4,75,0.00,,,0.00,WUHU216HW,2013-05-27 04:21:00,
2013-05-26 23:26:00,75.2,66.8,29.99,SSE,158,5.4,5.4,75,0.00,,,0.00,WUHU216HW,2013-05-27 04:26:00,
2013-05-26 23:31:00,75.2,66.8,29.99,ESE,113,5.4,5.4,75,0.00,,,0.00,WUHU216HW,2013-05-27 04:31:00,
2013-05-26 23:36:00,75.1,66.6,29.99,ESE,113,4.7,6.5,75,0.00,,,0.00,WUHU216HW,2013-05-27 04:36:00,
2013-05-26 23:41:00,75.1,66.6,29.99,ESE,113,3.4,6.5,75,0.00,,,0.00,WUHU216HW,2013-05-27 04:41:00,
2013-05-26 23:46:00,74.9,66.4,29.99,ESE,113,2.2,5.4,75,0.00,,,0.00,WUHU216HW,2013-05-27 04:46:00,
2013-05-26 23:51:00,74.9,66.4,29.99,ESE,113,2.0,5.4,75,0.00,,,0.00,WUHU216HW,2013-05-27 04:51:00,
2013-05-26 23:56:00,74.5,66.5,30.00,ESE,113,4.0,5.6,76,0.00,,,0.00,WUHU216HW,2013-05-27 04:56:00,